Location: La Verdetterie
(47.6395°N, 1.3772°W)
Time: 02:21:38
(UTC+00:00)

Daily predictions for brighter satellites

Satellite Brightness Start Highest point End
(mag) Time Altitude Azimuth Time Altitude Azimuth Time Altitude Azimuth
Cosmos 2344 4.3 02:37:40 47° E 02:37:40 47° E 02:43:49 10° NE
USA 234 3.9 02:54:43 10° NE 02:59:22 49° NE 02:59:22 49° NE
ADEOS Rocket 4.4 02:57:51 10° ESE 03:02:36 31° ENE 03:07:30 10° N
IDEFIX/ARIANE 42P 4.4 03:16:56 10° NNE 03:18:52 23° NNE 03:18:52 23° NNE
MSX 4.3 03:27:36 10° NNE 03:32:03 54° NE 03:32:03 54° NE
Cosmos 1833 Rocket 4.1 03:33:51 27° SE 03:35:47 34° ESE 03:40:50 10° NE
Cosmos 2279 Rocket 4.4 03:31:51 10° N 03:43:01 17° SSE 03:44:17 10° SSE
NOSS 3-2 (C) 3.4 03:43:22 76° ENE 03:43:22 76° ENE 03:49:28 10° NE
CENTAUR R/B 2.4 03:50:12 87° WSW 03:50:17 88° NW 03:57:29 10° NE
Cosmos 2369 4.4 03:49:30 29° N 03:52:15 53° ENE 03:57:46 10° SE
Cosmos 2082 Rocket 3.9 03:53:58 10° SSE 03:58:45 30° ESE 04:03:33 10° NE
PSLV R/B 4.1 04:01:52 10° NNE 04:05:31 56° NE 04:05:31 56° NE
ISS -1.5 04:09:06 25° E 04:09:06 25° E 04:10:51 10° ENE
CZ-2C R/B 2.5 04:02:51 10° NNE 04:07:51 71° ESE 04:08:51 54° SSE
ARIANE 5 R/B 4.4 04:04:13 10° N 04:05:39 18° N 04:05:39 18° N
Lacrosse 4 Rocket 2.4 04:18:22 37° NNE 04:18:22 37° NNE 04:20:59 10° NNE
Cosmos 1697 Rocket 2.6 04:16:51 36° NNW 04:19:17 89° WSW 04:24:58 10° SSE
COSMOS 2406 3.1 04:21:38 50° SSW 04:23:11 85° WNW 04:28:54 10° NNE
Lacrosse 5 rocket 1.5 04:25:46 59° E 04:25:46 59° E 04:29:01 10° ENE
Meteor 2-5 Rocket 4.2 04:21:47 10° S 04:27:23 62° E 04:33:09 10° NNE
USA 238 DEB 4.0 04:28:30 41° WNW 04:29:49 46° NW 04:36:31 10° NE
FENGYUN 3A 4.4 04:24:30 10° NNE 04:29:51 53° E 04:35:09 10° S
USA 238 4.0 04:28:35 41° WNW 04:29:54 46° NW 04:36:37 10° NE
NOSS 3-2 (A) 4.0 04:31:50 37° NW 04:32:48 39° NNW 04:39:10 10° NE
PAYLOAD A 4.0 04:29:21 10° N 04:34:23 63° WNW 04:35:51 44° SW
ATLAS 3B R/B 2.9 04:32:59 15° SSW 04:38:32 68° ESE 04:45:09 10° NE
Cosmos 1726 Rocket 4.0 04:34:51 10° N 04:39:18 63° ENE 04:43:43 10° SSE
ERS-2 2.2 04:36:14 10° SSE 04:39:17 60° S 04:39:17 60° S
Cosmos 967 Rocket 4.3 04:37:13 23° NW 04:41:20 78° WSW 04:47:34 10° SSE
Cosmos 1980 Rocket 2.3 04:36:27 10° NNW 04:42:04 77° ENE 04:47:41 10° SSE
Abrixas rocket 3.2 04:43:59 36° SE 04:43:59 36° SE 04:45:52 10° ESE
USA 234 3.9 04:37:43 10° ENE 04:43:47 42° N 04:46:42 27° WNW
Cosmos 2228 2.9 04:40:04 10° N 04:44:27 87° W 04:48:51 10° S
Cosmos 1092 Rocket 4.2 04:40:35 10° S 04:46:42 71° E 04:52:56 10° NNE
Geosat 3.9 04:42:28 10° SSE 04:47:28 70° WSW 04:51:08 19° NW
ADEOS Rocket 3.0 04:42:50 10° SSW 04:48:02 43° W 04:53:22 10° NNW
Cosmos 1269 Rocket 4.4 04:49:47 38° WNW 04:50:24 40° WNW 04:55:25 10° N
Cosmos 2344 4.0 04:47:42 31° W 04:50:50 45° NNW 04:58:58 10° NE
Nadezhda 4 Rocket 3.8 04:44:51 10° SSW 04:50:56 70° WNW 04:57:06 10° N
ADEOS 3.6 04:45:43 10° NNE 04:50:59 81° ESE 04:56:13 10° SSW
CZ-3 R/B 4.3 04:35:58 17° WSW 04:51:49 32° SSW 04:59:47 10° SE
Aureole 3 4.3 04:48:49 10° N 04:52:53 59° E 04:58:03 10° SSE
Cosmos 1606 Rocket 3.5 04:50:41 10° NNW 04:55:10 73° W 04:59:37 10° S
Cosmos 1400 Rocket 2.8 04:51:50 10° N 04:55:48 77° E 04:59:41 10° SSE
SAR-Lupe-1 4.2 04:52:22 10° SSE 04:55:54 71° ENE 04:59:29 10° N
CZ-4B R/B 4.3 04:52:25 10° NNE 04:56:38 67° E 05:00:38 10° S
SJ-6F 4.3 04:52:33 10° N 04:56:39 69° WNW 05:00:43 10° SSW
Cosmos 2360 4.2 04:55:24 16° NW 04:59:57 56° WSW 05:05:28 10° S
IDEFIX/ARIANE 42P 4.3 04:57:52 10° NNW 04:59:40 15° NW 04:59:40 15° NW
TELKOM 3 4.0 05:01:47 44° SW 05:02:38 67° SSE 05:06:28 10° ENE
COSMO-SKYMED 1 2.8 05:01:52 10° SSE 05:06:11 72° ENE 05:10:32 10° N
CZ-4B R/B 1.7 05:05:33 10° S 05:08:52 46° W 05:10:16 28° NW
Cosmos 1300 2.7 05:05:35 10° NNW 05:09:22 57° W 05:13:05 10° S
ARGOS Delta rocket 4.3 05:04:35 10° NNE 05:10:02 80° E 05:15:31 10° S
Cosmos 220 Rocket 4.4 05:09:17 24° NW 05:11:21 40° WSW 05:15:28 10° S
Cosmos 2278 3.7 05:06:55 10° NNW 05:12:31 63° WSW 05:18:04 10° SSE
ALOS 2.2 05:08:01 10° N 05:12:41 67° WNW 05:17:18 10° SSW
Cosmos 2322 Rocket 3.6 05:08:36 10° NNW 05:13:55 38° NE 05:19:09 10° ESE
Meteor 2-10 Rocket 4.1 05:09:02 10° N 05:13:59 57° ENE 05:18:59 10° SSE
Cosmos 1689 Rocket 2.0 05:12:37 10° SSE 05:15:32 83° ENE 05:18:29 10° NNW
Cosmos 1626 2.6 05:14:34 28° WSW 05:15:45 36° WNW 05:19:13 10° N
SL-14 R/B 3.5 05:12:05 10° SSW 05:15:56 47° WNW 05:19:52 10° N
Cosmos 1833 Rocket 3.0 05:15:37 18° WSW 05:19:36 44° NW 05:25:01 10° NNE
Cosmos 1992 Rocket 4.3 05:14:58 10° NW 05:19:53 43° WSW 05:24:47 10° S
deb Chang Zheng 4 3.5 05:18:31 10° N 05:22:43 59° WNW 05:26:54 10° SSW
Intercosmos 24 4.4 05:20:21 10° NNW 05:23:42 29° W 05:26:49 10° SSW
Cosmos 2084 3.6 05:19:38 10° SW 05:23:57 77° SE 05:28:22 10° NE
METEOR-M 4.1 05:20:22 10° N 05:25:41 68° WNW 05:30:59 10° SSW
Cosmos 1315 Rocket 3.4 05:23:29 10° N 05:27:35 61° ENE 05:31:40 10° SSE
SJ-12 3.8 05:24:19 10° NNE 05:28:28 84° WNW 05:32:34 10° SSW
Cosmos 2058 Rocket 3.1 05:25:13 10° NNW 05:29:41 64° W 05:34:06 10° S
SL-19 R/B 3.5 05:27:10 10° N 05:29:57 56° WNW 05:32:47 10° SSW
Elektron 1 3.6 05:27:38 16° SW 05:30:00 74° NW 05:32:57 10° NE
Okean 1-7 Rocket 3.5 05:26:07 10° SSW 05:30:41 80° W 05:35:13 10° N
Cosmos 1484 Rocket 3.3 05:28:25 10° N 05:31:59 36° WNW 05:35:28 10° SW
H-2A R/B 4.0 05:30:48 10° NNE 05:34:29 45° E 05:38:11 10° S
NOSS 3-2 (C) 4.5 05:30:50 17° WNW 05:34:37 31° NNW 05:40:42 10° NE
Cosmos 1428 Rocket 4.4 05:29:21 10° SSW 05:35:34 71° W 05:41:46 10° N
Cosmos 1553 Rocket 4.0 05:30:52 10° N 05:37:02 89° E 05:43:07 10° S
Cosmos 1461 3.6 05:34:15 14° WSW 05:37:53 42° NW 05:42:24 10° NNE
Meteor 1-24 Rocket 4.0 05:33:32 10° SSW 05:39:00 49° WNW 05:44:42 10° N
Cosmos 1892 Rocket 3.8 05:35:05 10° SSW 05:39:17 46° WNW 05:43:32 10° N
Meteor PRIRODA 3.5 05:37:25 10° N 05:41:04 79° WNW 05:44:44 10° SSW
USA 290 3.1 05:39:32 14° WSW 05:41:51 29° WNW 05:44:45 10° N
CENTAUR R/B 3.6 05:37:24 15° W 05:41:59 32° NNW 05:48:39 10° NE
CREW DRAGON DEMO-1 DEB 2.7 05:40:30 19° WNW 05:42:32 75° SSW 05:45:32 10° ESE
Cosmos 2082 Rocket 2.4 05:37:09 10° SW 05:42:35 49° NW 05:48:04 10° NNE
ISS -3.5 05:42:03 17° W 05:44:25 53° NNW 05:47:44 10° ENE
Cosmos 614 Rocket 3.9 05:39:22 10° SSW 05:44:31 82° WNW 05:49:40 10° NNE
CZ-2C R/B 3.8 05:42:09 10° NNW 05:45:30 18° WNW 05:48:13 12° W
Cosmos 2026 Rocket 4.1 05:41:48 10° SSW 05:48:03 56° WNW 05:54:21 10° N
SL-16 R/B 2.4 05:44:33 10° NNW 05:50:17 80° ENE 05:55:57 10° SSE
Cosmos 2251 Rocket 4.0 05:47:13 10° SW 05:52:16 41° WNW 05:57:19 10° N
Meteor 2-15 4.4 05:47:26 10° NNW 05:53:33 81° W 05:59:36 10° S
SKYMED 2 4.1 05:50:19 10° SSW 05:54:21 37° W 05:58:25 10° NNW
PSLV R/B 4.5 05:52:17 10° SSW 05:56:14 39° W 06:00:14 10° NNW
Lacrosse 4 Rocket 3.4 05:54:42 10° WNW 05:56:24 13° NW 05:58:13 10° N
Meteor 1-31 Rocket 3.7 05:53:18 10° N 05:56:41 28° WNW 06:00:03 10° SW
Cosmos 1455 2.2 05:53:42 10° NNW 05:57:35 81° W 06:01:27 10° S
[s.n.46727] 2.9 05:56:29 12° W 05:58:55 48° NNW 06:01:36 10° NE
[s.n.46723] 2.9 05:56:30 12° W 05:59:00 49° NNW 06:01:45 10° NE
[s.n.46707] 2.9 05:56:40 12° W 05:59:06 48° NNW 06:01:47 10° NE
[s.n.46708] 2.9 05:56:45 12° W 05:59:11 48° NNW 06:01:53 10° NE
[s.n.46719] 2.9 05:56:50 12° W 05:59:17 48° NNW 06:01:58 10° NE
[s.n.46724] 2.9 05:56:55 12° W 05:59:22 48° NNW 06:02:04 10° NE
[s.n.46687] 2.9 05:57:01 12° W 05:59:27 48° NNW 06:02:09 10° NE
[s.n.46696] 2.9 05:57:06 12° W 05:59:33 48° NNW 06:02:15 10° NE
[s.n.46720] 2.9 05:57:11 12° W 05:59:38 48° NNW 06:02:20 10° NE
[s.n.46676] 2.9 05:57:16 12° W 05:59:44 48° NNW 06:02:25 10° NE
[s.n.46721] 2.9 05:57:22 12° W 05:59:50 47° NNW 06:02:31 10° NE
[s.n.46728] 2.9 05:57:27 12° W 05:59:55 47° NNW 06:02:36 10° NE
[s.n.46690] 2.9 05:57:32 11° W 06:00:01 47° NNW 06:02:42 10° NE
[s.n.46694] 2.9 05:57:36 11° W 06:00:04 47° NNW 06:02:45 10° NE
Cosmos 2333 Rocket 4.2 05:55:34 10° N 06:00:11 25° NE 06:04:46 10° E
[s.n.46702] 2.9 05:57:43 11° W 06:00:12 47° NNW 06:02:53 10° NE
[s.n.46679] 2.9 05:57:46 11° W 06:00:15 47° NNW 06:02:57 10° NE
[s.n.46704] 3.0 05:57:48 11° W 06:00:21 48° NNW 06:03:05 10° NE
[s.n.46712] 2.9 05:57:54 11° W 06:00:24 47° NNW 06:03:05 10° NE
[s.n.46711] 2.9 05:58:03 11° W 06:00:32 47° NNW 06:03:14 10° NE
[s.n.46684] 2.9 05:58:05 11° W 06:00:35 47° NNW 06:03:17 10° NE
[s.n.46706] 2.9 05:58:13 11° W 06:00:43 47° NNW 06:03:25 10° NE
[s.n.46678] 3.0 05:58:11 11° W 06:00:45 48° NNW 06:03:30 10° NE
[s.n.46677] 2.9 05:58:21 11° W 06:00:51 47° NNW 06:03:33 10° NE
[s.n.46671] 2.9 05:58:26 11° W 06:00:57 47° NNW 06:03:39 10° NE
[s.n.46675] 2.9 05:58:32 11° W 06:01:02 47° NNW 06:03:44 10° NE
[s.n.46674] 2.9 05:58:37 11° W 06:01:08 47° NNW 06:03:50 10° NE
[s.n.46698] 2.9 05:58:42 11° W 06:01:14 47° NNW 06:03:55 10° NE
[s.n.46699] 3.0 05:58:43 11° W 06:01:18 47° NNW 06:04:02 10° NE
[s.n.46715] 2.9 05:58:53 11° W 06:01:25 46° NNW 06:04:06 10° NE
[s.n.46714] 2.9 05:58:58 11° W 06:01:30 46° NNW 06:04:11 10° NE
[s.n.46726] 2.9 05:59:03 11° W 06:01:36 46° NNW 06:04:17 10° NE
[s.n.46703] 3.0 05:59:08 11° W 06:01:41 46° NNW 06:04:22 10° NE
[s.n.46713] 3.0 05:59:14 11° W 06:01:47 46° NNW 06:04:28 10° NE
YAOGAN 6 3.6 05:58:10 10° NNE 06:01:49 52° E 06:05:23 10° S
Meteor 2-1 Rocket 4.3 05:56:10 10° NNW 06:01:49 70° W 06:07:33 10° S
[s.n.46717] 3.0 05:59:19 11° W 06:01:53 46° NNW 06:04:34 10° NE
[s.n.46691] 3.0 05:59:20 11° W 06:01:57 47° NNW 06:04:41 10° NE
[s.n.46693] 3.0 05:59:30 11° W 06:02:03 46° NNW 06:04:45 10° NE
[s.n.46672] 3.0 05:59:35 11° W 06:02:09 46° NNW 06:04:50 10° NE
CZ-4B R/B 3.3 05:58:24 10° N 06:02:13 43° WNW 06:06:12 10° SW
[s.n.46701] 3.0 05:59:40 11° W 06:02:14 46° NNW 06:04:56 10° NE
[s.n.46685] 3.0 05:59:46 11° W 06:02:20 46° NNW 06:05:01 10° NE
Cosmos 1697 Rocket 4.2 05:59:24 10° WNW 06:02:24 15° W 06:05:25 10° SW
[s.n.46709] 3.0 05:59:51 11° W 06:02:25 46° NNW 06:05:07 10° NE
[s.n.46683] 3.0 05:59:55 11° W 06:02:30 46° NNW 06:05:11 10° NE
Spot 2 4.3 05:57:57 10° NNE 06:02:31 89° W 06:07:19 10° SSW
[s.n.46695] 3.0 06:00:01 11° W 06:02:35 46° NNW 06:05:17 10° NE
[s.n.46688] 3.0 06:00:07 11° W 06:02:42 46° NNW 06:05:24 10° NE
[s.n.46729] 3.0 06:00:11 11° W 06:02:47 46° NNW 06:05:28 10° NE
[s.n.46697] 3.0 06:00:14 11° W 06:02:49 46° NNW 06:05:31 10° NE
[s.n.46725] 3.0 06:00:19 11° W 06:02:55 46° NNW 06:05:36 10° NE
[s.n.46682] 3.0 06:00:24 11° W 06:03:00 46° NNW 06:05:41 10° NE
[s.n.46680] 3.0 06:00:30 10° W 06:03:06 45° NNW 06:05:47 10° NE
[s.n.46718] 3.0 06:00:35 10° W 06:03:12 45° NNW 06:05:53 10° NE
Cosmos 1626 Rocket 3.5 05:58:45 10° SSW 06:03:13 75° W 06:07:42 10° N
[s.n.46710] 3.0 06:00:40 10° W 06:03:17 45° NNW 06:05:58 10° NE
[s.n.46673] 3.0 06:00:51 10° W 06:03:28 45° NNW 06:06:10 10° NE
[s.n.46700] 3.0 06:00:56 10° W 06:03:34 45° NNW 06:06:15 10° NE
[s.n.46705] 3.0 06:01:02 10° W 06:03:39 45° NNW 06:06:20 10° NE
[s.n.46692] 3.0 06:01:07 10° W 06:03:46 45° NNW 06:06:27 10° NE
[s.n.46686] 3.0 06:01:13 10° W 06:03:51 45° NNW 06:06:32 10° NE
[s.n.46716] 3.0 06:01:19 10° W 06:03:56 45° NNW 06:06:38 10° NE
[s.n.46722] 3.0 06:01:23 10° W 06:04:02 45° NNW 06:06:43 10° NE
[s.n.46689] 3.0 06:01:29 10° W 06:04:08 45° NNW 06:06:49 10° NE
[s.n.46681] 3.0 06:01:34 10° W 06:04:14 45° NNW 06:06:54 10° NE
Lacrosse 5 rocket 2.2 06:01:25 10° W 06:04:40 29° NNW 06:08:06 10° NE
Cosmos 1602 Rocket 3.6 06:01:48 10° S 06:06:14 89° E 06:10:44 10° N
Cosmos-2242 4.2 06:03:18 10° N 06:07:32 47° ENE 06:11:46 10° SSE
Okean O Rocket 3.2 06:03:31 10° NNE 06:07:40 41° E 06:11:47 10° S
Cosmos 1703 3.6 06:04:23 10° S 06:08:14 71° E 06:12:08 10° NNE
Cosmos 1190 Rocket 4.1 06:06:45 10° SSW 06:12:00 89° WNW 06:17:15 10° NNE
Cosmos 1812 Rocket 3.5 06:08:42 10° NNW 06:13:03 76° W 06:17:21 10° S
PSLV R/B 3.9 06:09:30 10° N 06:13:36 70° WNW 06:17:41 10° SSW
Cosmos 2360 Rocket 2.9 06:09:02 10° NNW 06:14:36 58° ENE 06:20:08 10° SE
